Location: Christian Reformed Church
(43.0975°N, 93.8113°W)
Time: 19:09:32
(UTC+00:00)

Meteor 1-25 Rocket - Pass Details

Date: 17 March 2026
Orbit: 836 x 889 km, 81.2° (Epoch: 14 April)

Event Time Altitude Azimuth Distance (km) Brightness Sun altitude
Rises 00:59:27 0° 203° (SSW) 3,376 7.6 -7.5°
Reaches altitude 10° 01:01:54 10° 208° (SSW) 2,450 6.9 -7.9°
Maximum altitude 01:07:19 52° 284° (WNW) 1,045 5.2 -8.9°
Drops below altitude 10° 01:12:49 10° 1° (N) 2,493 6.7 -9.9°
Sets 01:15:20 0° 6° (N) 3,442 7.4 -10.4°
